SM7GXQ Weather Reports


Display with metric or nautical units.
time (UTC)temp
F
wind
direction
speed
MPH
gust
MPH
rain 1hr
in
rain 24hr
in
rain mn
in
humidity
%
barometer
mb
20260905200004 58 219 2.0 12.0 0.00 0.11 0.11 87 1004.6
20260905184504 58 264 6.0 12.0 0.02 0.11 0.11 87 1004.6
20260905183004 58 276 3.0 10.0 0.02 0.11 0.11 86 1004.3
20260905181504 58 262 3.0 10.0 0.04 0.12 0.11 87 1004.3
20260905174504 58 266 4.0 12.0 0.06 0.10 0.09 84 1004.3
20260905173005 59 284 7.0 14.0 0.05 0.09 0.09 83 1004.3
20260905170004 62 287 7.0 12.0 0.01 0.09 0.05 79 1003.9
20260905163004 63 284 9.0 12.0 0.00 0.12 0.04 74 1002.9
20260905160005 64 286 6.0 12.0 0.00 0.14 0.04 75 1002.5
20260905151504 65 285 7.0 16.0 0.00 0.17 0.04 70 1002.1
20260905150004 64 274 7.0 15.0 0.00 0.20 0.04 73 1002.1
20260905144504 64 289 7.0 13.0 0.00 0.20 0.04 75 1002.1
20260905143004 64 283 6.0 15.0 0.00 0.22 0.04 72 1002.1
20260905141504 65 284 10.0 17.0 0.00 0.24 0.04 75 1001.9
20260905140005 66 285 6.0 13.0 0.00 0.24 0.04 71 1001.9
20260905134504 66 289 3.0 12.0 0.00 0.25 0.04 72 1001.7
20260905131503 66 272 6.0 14.0 0.00 0.27 0.04 73 1001.5
20260905130004 65 286 7.0 16.0 0.00 0.28 0.04 72 1001.5
20260905123004 66 281 9.0 16.0 0.00 0.29 0.04 69 1001.4
20260905120004 66 255 5.0 14.0 0.00 0.29 0.04 74 1001.2
20260905113005 64 278 6.0 12.0 0.03 0.29 0.04 76 1001.3
20260905100004 62 256 5.0 12.0 0.00 0.26 0.01 81 1000.5
20260905084504 62 277 6.0 13.0 0.00 0.26 0.01 82 999.8
20260905080006 61 276 8.0 13.0 0.00 0.26 0.01 83 999.2
20260905070005 59 260 5.0 12.0 0.00 0.26 0.01 87 999.0
20260905060004 58 273 3.0 12.0 0.00 0.26 0.01 89 998.2
20260905054504 58 280 7.0 13.0 0.00 0.26 0.01 89 998.0
20260905051504 58 260 3.0 10.0 0.00 0.26 0.01 90 998.0
20260905043005 57 265 3.0 12.0 0.00 0.26 0.01 91 997.4
20260905041505 57 274 3.0 9.0 0.00 0.26 0.01 91 997.0
20260905033005 57 264 3.0 9.0 0.00 0.26 0.01 91 996.4
20260905030005 57 275 2.0 8.0 0.00 0.26 0.01 91 996.0
20260905023005 57 271 3.0 12.0 0.00 0.26 0.01 89 996.0
20260905021505 57 251 3.0 10.0 0.01 0.26 0.01 89 996.0
20260905020005 57 251 4.0 10.0 0.01 0.26 0.01 89 996.0
20260905014504 58 272 3.0 12.0 0.01 0.27 0.01 90 996.0
20260905010004 58 248 3.0 9.0 0.00 0.28 0.00 90 995.9
20260905003003 58 271 4.0 12.0 0.00 0.28 0.00 91 995.9
20260905001503 58 251 3.0 12.0 0.00 0.28 0.00 91 995.9
20260904234504 58 268 3.0 9.0 0.00 0.28 0.00 90 995.5
20260904231504 59 280 4.0 9.0 0.00 0.28 0.00 91 995.5
20260904230004 59 281 5.0 8.0 0.00 0.28 0.00 91 995.7
20260904223004 59 293 3.0 6.0 0.00 0.28 0.00 92 995.5
20260904221505 59 277 2.0 6.0 0.00 0.28 0.00 93 995.1
20260904220004 59 279 4.0 7.0 0.00 0.28 0.00 93 995.1
20260904214505 59 269 3.0 6.0 0.00 0.28 0.28 93 995.1
20260904210004 59 232 1.0 5.0 0.00 0.31 0.28 93 995.0
20260904204504 59 259 2.0 6.0 0.00 0.35 0.28 93 995.1
20260904203005 59 207 1.0 8.0 0.00 0.37 0.28 93 995.2